This demonstration page uses our WeatherBlox Daily Observations layout. Learn more.

Hourly Observations for October 23, 2016

Temp ( °F °C ) Dew Point ( °F °C ) Humidity (%) Winds ( mph kmh ) Pressure ( in mb ) Visibility ( mi km ) Precip ( " mm )
12:15 am 00:15 Clear 58 14.7 41 5 52 52 SSW 9 15 29.85 1011 10 16.09344 0 0
12:35 am 00:35 Clear 58 14.6 41 5 53 53 SSW 9 15 29.85 1011 10 16.09344 0 0
12:55 am 00:55 Clear 57 14 41 5 55 55 SSW 10 17 29.85 1011 10 16.09344 0 0
1:15 am 01:15 Clear 56 13.4 40 4.7 56 56 SSW 6 9 29.85 1011 10 16.09344 0 0
1:35 am 01:35 Clear 56 13.1 40 4.5 56 56 SSW 7 11 29.85 1011 10 16.09344 0 0
1:55 am 01:55 Clear 56 13.6 40 4.4 54 54 SSW 3 6 29.88 1012 10 16.09344 0 0
2:15 am 02:15 Clear 56 13.6 39 4.1 53 53 SW 7 11 29.88 1012 10 16.09344 0 0
2:35 am 02:35 Clear 56 13.3 39 4.1 54 54 WNW 8 13 29.91 1013 10 16.09344 0 0
2:55 am 02:55 Clear 55 12.5 39 3.8 56 56 WNW 3 6 29.91 1013 10 16.09344 0 0
3:15 am 03:15 Clear 53 11.4 38 3.5 59 59 NW 3 6 29.94 1014 10 16.09344 0 0
3:35 am 03:35 Clear 51 10.7 38 3.5 61 61 NNW 8 13 29.97 1015 10 16.09344 0 0
3:55 am 03:55 Clear 51 10.4 37 2.7 59 59 N 9 15 29.97 1015 10 16.09344 0 0
4:15 am 04:15 Clear 53 11.4 36 2.3 54 54 N 12 19 29.97 1015 10 16.09344 0 0
4:35 am 04:35 Clear 53 11.5 36 2.2 53 53 N 10 17 29.97 1015 10 16.09344 0 0
4:55 am 04:55 Clear 53 11.8 35 1.8 51 51 N 10 17 30 1016 10 16.09344 0 0
5:15 am 05:15 Clear 53 11.9 35 1.6 50 50 N 12 19 30 1016 10 16.09344 0 0
5:35 am 05:35 Clear 53 11.5 35 1.7 51 51 N 12 19 30 1016 10 16.09344 0 0
5:55 am 05:55 Clear 52 11 35 1.9 54 54 N 12 19 30.03 1017 10 16.09344 0 0
6:15 am 06:15 Clear 52 10.9 36 2 54 54 N 9 15 30.03 1017 10 16.09344 0 0
6:35 am 06:35 Clear 51 10.5 35 1.8 55 55 N 10 17 30.03 1017 10 16.09344 0 0
6:55 am 06:55 Clear 50 10.1 35 1.7 56 56 N 10 17 30.06 1018 10 16.09344 0 0
7:15 am 07:15 Clear 49 9.5 35 1.6 58 58 N 9 15 30.09 1019 10 16.09344 0 0
7:35 am 07:35 Clear 49 9.2 35 1.6 59 59 N 10 17 30.09 1019 10 16.09344 0 0
7:55 am 07:55 Clear 49 9.2 35 1.6 59 59 N 8 13 30.12 1020 10 16.09344 0 0
8:15 am 08:15 Sunny 48 9 35 1.6 60 60 N 10 17 30.12 1020 10 16.09344 0 0
8:35 am 08:35 Sunny 49 9.4 35 1.6 59 59 N 9 15 30.15 1021 10 16.09344 0 0
8:55 am 08:55 Sunny 50 10.1 35 1.8 57 57 N 9 15 30.15 1021 10 16.09344 0 0
9:15 am 09:15 Sunny 52 10.9 35 1.9 54 54 N 10 17 30.12 1020 10 16.09344 0 0
9:35 am 09:35 Sunny 53 11.6 35 1.7 51 51 N 13 20 30.12 1020 10 16.09344 0 0
9:55 am 09:55 Sunny 55 12.5 34 1 46 46 N 16 26 30.12 1020 10 16.09344 0 0
10:15 am 10:15 Sunny 56 13.1 33 0.4 42 42 N 17 28 30.12 1020 10 16.09344 0 0
10:35 am 10:35 Sunny 57 13.7 32 -0.1 39 39 N 15 24 30.12 1020 10 16.09344 0 0
10:55 am 10:55 Sunny 58 14.5 31 -0.6 36 36 N 16 26 30.12 1020 10 16.09344 0 0
11:15 am 11:15 Sunny 60 15.3 30 -1.3 32 32 NNE 20 31 30.12 1020 10 16.09344 0 0
11:35 am 11:35 Sunny 61 16 30 -1.3 31 31 NNE 14 22 30.12 1020 10 16.09344 0 0
11:55 am 11:55 Sunny 62 16.5 29 -1.5 29 29 NNE 15 24 30.12 1020 10 16.09344 0 0
12:15 pm 12:15 Sunny 63 17.3 28 -2 27 27 NNE 15 24 30.12 1020 10 16.09344 0 0
12:35 pm 12:35 Sunny 64 18 28 -2.4 25 25 NNE 15 24 30.09 1019 10 16.09344 0 0
12:55 pm 12:55 Sunny 65 18.5 28 -2.2 25 25 NNE 13 20 30.09 1019 10 16.09344 0 0
1:15 pm 13:15 Sunny 65 18.3 28 -2.3 25 25 N 16 26 30.09 1019 10 16.09344 0 0
1:35 pm 13:35 Sunny 65 18.5 27 -2.7 24 24 NNE 12 19 30.09 1019 10 16.09344 0 0
1:55 pm 13:55 Sunny 66 18.7 27 -2.7 23 23 NNE 14 22 30.09 1019 10 16.09344 0 0
2:15 pm 14:15 Sunny 68 19.8 27 -2.9 21 21 NNE 12 19 30.09 1019 10 16.09344 0 0
2:35 pm 14:35 Sunny 68 20.1 26 -3.4 20 20 NE 10 17 30.09 1019 10 16.09344 0 0
2:55 pm 14:55 Sunny 68 20.2 25 -4.1 19 19 NE 14 22 30.06 1018 10 16.09344 0 0
3:15 pm 15:15 Sunny 69 20.7 24 -4.3 18 18 NE 13 20 30.03 1017 10 16.09344 0 0
3:35 pm 15:35 Sunny 69 20.6 24 -4.5 18 18 NE 12 19 30.06 1018 10 16.09344 0 0
3:55 pm 15:55 Sunny 68 20.1 24 -4.3 19 19 NNE 10 17 30.09 1019 10 16.09344 0 0
4:15 pm 16:15 Sunny 68 20.1 24 -4.3 19 19 NE 10 17 30.09 1019 10 16.09344 0 0
4:35 pm 16:35 Sunny 68 20.1 25 -3.7 20 20 NNE 10 17 30.09 1019 10 16.09344 0 0
4:55 pm 16:55 Sunny 67 19.7 26 -3.6 21 21 NE 8 13 30.09 1019 10 16.09344 0 0
5:15 pm 17:15 Sunny 66 19.1 25 -3.7 21 21 NE 8 13 30.09 1019 10 16.09344 0 0
5:35 pm 17:35 Sunny 66 18.8 26 -3.2 22 22 NE 8 13 30.09 1019 10 16.09344 0 0
5:55 pm 17:55 Sunny 65 18.1 27 -3 24 24 NE 6 9 30.09 1019 10 16.09344 0 0
6:15 pm 18:15 Sunny 60 15.8 27 -3 28 28 NE 6 9 30.15 1021 10 16.09344 0 0
6:35 pm 18:35 Hazy 57 13.7 27 -3 32 32 NE 6 9 30.18 1022 5 8.04672 0 0
6:55 pm 18:55 Clear 55 12.5 27 -3 34 34 NE 6 9 30.18 1022 10 16.09344 0 0
7:15 pm 19:15 Clear 51 10.8 27 -2.8 39 39 NE 6 9 30.21 1023 10 16.09344 0 0
7:35 pm 19:35 Clear 49 9.5 27 -2.6 43 43 NE 7 11 30.21 1023 10 16.09344 0 0
7:55 pm 19:55 Clear 49 9.4 27 -2.7 43 43 NE 7 11 30.21 1023 10 16.09344 0 0
8:15 pm 20:15 Clear 47 8.1 26 -3.1 45 45 NE 6 9 30.21 1023 10 16.09344 0 0
8:35 pm 20:35 Clear 47 8.6 27 -2.9 45 45 NE 6 9 30.24 1024 10 16.09344 0 0
8:55 pm 20:55 Clear 46 7.6 27 -2.6 49 49 NE 7 11 30.27 1025 10 16.09344 0 0
9:15 pm 21:15 Clear 45 7.3 28 -2.3 51 51 NE 8 13 30.27 1025 10 16.09344 0 0
9:35 pm 21:35 Clear 45 7.3 28 -2.4 51 51 NE 8 13 30.27 1025 10 16.09344 0 0
9:55 pm 21:55 Clear 46 7.5 28 -2.2 51 51 ENE 8 13 30.27 1025 10 16.09344 0 0
10:15 pm 22:15 Clear 45 7.1 28 -2.5 51 51 ENE 8 13 30.27 1025 10 16.09344 0 0
10:35 pm 22:35 Clear 45 7.4 28 -2.3 51 51 ENE 8 13 30.3 1026 10 16.09344 0 0
10:55 pm 22:55 Clear 41 5 27 -2.7 58 58 ENE 7 11 30.3 1026 10 16.09344 0 0
11:15 pm 23:15 Clear 41 5 28 -2.3 60 60 NE 5 7 30.3 1026 10 16.09344 0 0
11:35 pm 23:35 Clear 42 5.7 27 -2.6 56 56 NE 6 9 30.3 1026 10 16.09344 0 0
11:55 pm 23:55 Clear 41 4.8 28 -2.3 60 60 ENE 6 9 30.33 1027 10 16.09344 0 0

Powered by AerisWeather